Regional Weather Roundup
Issued by NWS Little Rock, AR

Home | Current Version | Previous Version | Graphics & Text | Print | Product List | Glossary On
Versions: 1 2 3 4 5 6 7 8 9 10 11 12 13 14 15 16 17 18 19 20 21 22 23 24 25 26 27 28 29 30 31 32 33 34 35 36 37 38 39 40 41 42 43 44 45 46 47
000
ASUS44 KLZK 011005
RWRLZK

WEATHER ROUNDUP FOR ARKANSAS
NATIONAL WEATHER SERVICE LITTLE ROCK AR
500 AM CDT TUE SEP 01 2015

NOTE: "FAIR" INDICATES FEW OR NO CLOUDS BELOW 12,000 FEET WITH NO
SIGNIFICANT WEATHER AND/OR OBSTRUCTIONS TO VISIBILITY.

ARZ001-003-010-029-011100-
NORTHWEST ARKANSAS

CITY           SKY/WX    TMP DP  RH WIND       PRES   REMARKS
FAYETTEVILLE   CLEAR     65  65 100 S5        30.09R FOG
FORT SMITH     CLEAR     71  67  87 NE3       30.05S
BENTONVILLE    CLEAR     68  63  83 SE5       30.09S
ROGERS         CLEAR     70  66  87 SE6       30.10R
SILOAM SPGS    CLEAR     70  61  73 SE5       30.06S
HIGHFILL       CLEAR     69  66  90 CALM      30.08S
$$

ARZ004-005-016-011100-
NORTH CENTRAL ARKANSAS

CITY           SKY/WX    TMP DP  RH WIND       PRES   REMARKS
BATESVILLE     CLEAR     72  68  88 CALM      30.08S
FLIPPIN        CLEAR     66  63  88 CALM      30.07S
MTN HOME       CLEAR     68  67  96 CALM      30.09R FOG
$$

ARZ040-041-011100-
WEST CENTRAL ARKANSAS

CITY           SKY/WX    TMP DP  RH WIND       PRES   REMARKS
MENA           CLEAR     64  64 100 CALM      30.08S
MOUNT IDA      CLEAR     67  64  90 CALM      30.05S FOG
$$

ARZ009-017-025-026-028-011100-
NORTHEAST ARKANSAS

CITY           SKY/WX    TMP DP  RH WIND       PRES   REMARKS
JONESBORO      CLEAR     67  67 100 CALM      30.08R
NEWPORT        CLEAR     71  71 100 CALM      30.09R
WALNUT RIDGE   CLEAR     70  66  88 CALM      30.08S
BLYTHEVILLE    CLEAR     70  68  93 CALM      30.09R
$$

ARZ022-023-033-042-044-011100-
CENTRAL ARKANSAS

CITY           SKY/WX    TMP DP  RH WIND       PRES   REMARKS
LITTLE ROCK    MOCLDY    73  69  87 CALM      30.05S
N LITTLE ROCK    N/A     74  71  89 SE3       30.05S
JACKSONVILLE   PTCLDY    70  68  94 NE2       30.05S
SEARCY         PTCLDY    70  68  93 NE3       30.08S
HOT SPRINGS    CLEAR     70  68  93 CALM      30.06S FOG
RUSSELLVILLE   CLEAR     68  67  96 CALM      30.05S FOG
$$

ARZ036-011100-
EAST ARKANSAS

CITY           SKY/WX    TMP DP  RH WIND       PRES   REMARKS
WEST MEMPHIS   MOCLDY    70  69  97 CALM      30.07S
$$

ARZ050-053-066-070-073-011100-
SOUTHWEST ARKANSAS

CITY           SKY/WX    TMP DP  RH WIND       PRES   REMARKS
ARKADELPHIA    FAIR      67  67 100 CALM      30.06R FOG
CAMDEN         PTCLDY    68  64  88 CALM      30.05R
TEXARKANA      PTCLDY    71  66  84 SW5       30.05S
EL DORADO      MOCLDY    70  64  81 CALM      30.06R
DE QUEEN       CLEAR     65  65 100 CALM      30.04S FOG
$$

ARZ056-057-069-011100-
SOUTHEAST ARKANSAS

CITY           SKY/WX    TMP DP  RH WIND       PRES   REMARKS
PINE BLUFF     PTCLDY    70  68  93 CALM      30.05S
STUTTGART      PTCLDY    73  66  78 SE3       30.06R
MONTICELLO     CLOUDY    72  69  90 CALM      30.06R

$$





USA.gov is the U.S. government's official web portal to all federal, state and local government web resources and services.